This demonstration page uses our WeatherBlox Daily Observations layout. Learn more.

Left ArrowRight Arrow

39.92423, -83.80882

Hourly Observations for April 23, 2020

Temp ( °F °C ) Dew Point ( °F °C ) Humidity (%) Winds ( mph kmh ) Pressure ( in mb ) Visibility ( mi km ) Precip ( " mm )
12:56 am 00:56 Mostly Clear 56 13.3 41 5 57 57 S 7 11 29.89 1012 10 16.0934 0 0
1:56 am 01:56 Clear 55 12.8 40 4.4 57 57 S 5 7 29.88 1012 10 16.0934 0 0
2:56 am 02:56 Clear 54 12.2 40 4.4 59 59 SSW 7 11 29.85 1011 10 16.0934 0 0
3:56 am 03:56 Mostly Clear 54 12.2 40 4.4 59 59 SSW 5 7 29.83 1010 10 16.0934 0 0
4:56 am 04:56 Clear 52 11.1 40 4.4 64 64 S 5 7 29.83 1010 10 16.0934 0 0
5:56 am 05:56 Clear 51 10.6 40 4.4 66 66 S 5 7 29.83 1010 10 16.0934 0 0
6:56 am 06:56 Sunny 48 8.9 41 5 77 77 SSE 5 7 29.84 1010 10 16.0934 0 0
7:56 am 07:56 Partly Cloudy 53 11.7 42 5.6 66 66 S 7 11 29.84 1011 10 16.0934 0 0
8:56 am 08:56 Mostly Sunny 54 12.2 43 6.1 67 67 S 5 7 29.82 1010 10 16.0934 0 0
9:56 am 09:56 Cloudy 55 12.8 44 6.7 67 67 S 5 7 29.83 1010 10 16.0934 0 0
10:56 am 10:56 Cloudy with Light Rain 53 11.7 49 9.4 86 86 SSE 7 11 29.83 1010 10 16.0934 0.01 0.254
11:56 am 11:56 Cloudy with Light Rain 52 11.1 52 11.1 100 100 SE 7 11 29.82 1010 10 16.0934 0.05 1.27
12:35 pm 12:35 Cloudy with Light Rain 54 12 54 12 100 100 ESE 8 13 29.79 1009 10 16.0934 0.01 0.254
12:52 pm 12:52 Cloudy with Light Rain 54 12 54 12 100 100 SE 8 13 29.78 1009 10 16.0934 0.01 0.254
12:56 pm 12:56 Cloudy with Light Rain 54 12.2 54 12.2 100 100 ESE 9 15 29.78 1009 10 16.0934 0.01 0.254
1:08 pm 13:08 Cloudy with Light Rain 54 12 54 12 100 100 E 10 17 29.77 1008 10 16.0934 0.01 0.254
1:56 pm 13:56 Cloudy with Light Rain 54 12.2 53 11.7 97 97 ESE 13 20 29.75 1007 10 16.0934 0.01 0.254
2:17 pm 14:17 Cloudy with Light Rain 54 12 54 12 100 100 ESE 13 20 29.73 1007 10 16.0934 0.01 0.254
2:25 pm 14:25 Cloudy with Light Rain 54 12 54 12 100 100 ESE 12 19 29.73 1007 10 16.0934 0.01 0.254
2:56 pm 14:56 Cloudy with Light Rain 54 12.2 54 12.2 100 100 ESE 15 24 29.72 1006 10 16.0934 0.02 0.508
3:27 pm 15:27 Cloudy 54 12 54 12 100 100 SE 14 22 29.71 1006 9 14.48406 0.001 0.001
3:56 pm 15:56 Cloudy with Light Rain 53 11.7 53 11.7 100 100 ESE 13 20 29.7 1006 7 11.26538 0.001 0.001
4:56 pm 16:56 Cloudy with Light Rain 53 11.7 53 11.7 100 100 E 13 20 29.67 1005 10 16.0934 0.001 0.001
5:56 pm 17:56 Cloudy with Light Rain 53 11.7 53 11.7 100 100 E 10 17 29.65 1004 10 16.0934 0.001 0.001
6:56 pm 18:56 Cloudy 54 12.2 54 12.2 100 100 ESE 9 15 29.65 1004 10 16.0934 0.001 0.001
7:33 pm 19:33 Cloudy 54 12 54 12 100 100 ESE 8 13 29.65 1004 10 16.0934 0 0
7:56 pm 19:56 Cloudy with Light Rain 53 11.7 53 11.7 100 100 ENE 6 9 29.65 1004 10 16.0934 0.001 0.001
8:56 pm 20:56 Cloudy 53 11.7 53 11.7 100 100 NE 10 17 29.62 1003 8 12.87472 0.001 0.001
9:06 pm 21:06 Cloudy 52 11 52 11 100 100 NE 8 13 29.63 1003 7 11.26538 0 0
9:34 pm 21:34 Cloudy with Light Rain 54 12 54 12 100 100 E 6 9 29.64 1004 7 11.26538 0.001 0.001
9:56 pm 21:56 Cloudy 52 11.1 52 11.1 100 100 E 7 11 29.65 1004 7 11.26538 0.001 0.001
10:40 pm 22:40 Cloudy with Mist and Fog 52 11 52 11 100 100 NE 9 15 29.66 1004 4 6.43736 0 0
10:54 pm 22:54 Cloudy with Mist and Fog 52 11 52 11 100 100 NE 9 15 29.66 1004 2.5 4.02335 0 0
10:56 pm 22:56 Cloudy with Mist and Fog 52 11.1 52 11.1 100 100 NE 9 15 29.66 1004 2.5 4.02335 0 0
11:56 pm 23:56 Cloudy with Mist and Fog 51 10.6 51 10.6 100 100 NE 10 17 29.65 1004 1.75 2.816345 0 0

Powered by AerisWeather